Warning: Javascript must be enabled to use all the features on this page!


Page Loading - Please Wait...

Click to hideNews Bulletins

Peak Streamflow for the Nation

USGS 10337500 TRUCKEE R A TAHOE CITY CA

Placer County, California
Hydrologic Unit Code 16050102
Latitude  39°09'59", Longitude 120°08'36" NAD27
Drainage area 507  square miles
Gage datum 6,216.59 feet above NGVD29
Output formats
Table
Graph
Tab-separated file
peakfq (watstore) format
Reselect output format
Water
Year
Date Gage
Height
(feet)
Stream-
flow
(cfs)
1901 1901-08-11   5551,6
1902 1902-08-14   4451,6
1903 1903-09-03   4261,6
1904 1904-06-19   9311,6
1905 1904-10-20   7901,6
1906 1906-08-18   8381,6
1907 1907-07-13   1,3401,6
1908 1907-10-01   1,2101,6
1909 1909-06-20   8691,6
1910 1910-01-02   8981,6
1911 1911-07-20   8611,6
1912 1911-12-29   6171,6
1913 1913-08-25   5201,6
1914 1914-07-04   6181,6
1915 1914-11-24   6521,6
1916 1916-03-05   1,0101,6
1917 1916-10-21   1,1601,6
1918 1918-07-23   7251,6
1919 1919-06-28   7251,6
1920 1920-08-11   5181,6
1921 1921-08-17   4651,6
1922 1922-08-21   4871,6
1923 1923-08-12   4901,6
1924 1924-01-03   4021,6
1925 1925-07-31   4761,6
1926 1926-06-23   3841,6
1927 1927-09-24   4291,6
1928 1928-07-17   4901,6
1929 1928-10-01   3151,6
1930 1930-09-05   3041,6
1931 1930-10-01   59.01,6
1932 1932-07-16   1721,6
1933 1933-06-28   50.01,6
1934 1934-07-23   2881,6
1935 1934-10-12   51.01,6
1936 1936-08-06   4711,6
1937 1937-08-05   4661,6
1938 1938-07-28   5051,6
1939 1939-07-23   4901,6
1940 1940-07-30   4281,6
1941 1941-09-21   4681,6
1942 1942-06-25   1,4101,6
1943 1943-01-30   1,8201,6
1944 1944-08-23   4811,6
1945 1945-08-04   4571,6
1946 1946-08-03   4191,6
1947 1947-09-14   4291,6
1948 1948-07-26   4361,6
1949 1949-07-21   4561,6
1950 1950-09-18   3881,6
1951 1950-12-23   1,2001,6
1952 1952-01-25   1,6001,6
1953 1953-06-24   1,6001,6
1954 1954-09-02   4551,6
1955 1955-08-06   5441,6
1956 1956-03-02   1,3401,6
1957 1957-06-06   1,3201,6
1958 1958-04-05 7.30 1,8706
1959 1959-07-18 4.47 5036
1960 1960-07-25 4.926 5586
1961 1960-10-01 4.37 3936
1962 1962-07-20 4.76 4636
1963 1963-02-01 3.52 1966
1964 1964-08-10 5.16 4906
1965 1965-02-05 6.65 1,1106
1966 1965-11-30 8.20 1,8306
1967 1967-06-27 7.52 1,5606
1968 1967-12-22 5.08 5746
1969 1969-06-19 9.32 2,6306
1970 1970-01-28 7.90 1,8006
1971 1971-06-26 6.78 1,2406
1972 1972-07-22 4.45 4256
1973 1973-08-26 4.46 4286
1974 1974-07-11 6.65 1,1906
1975 1975-05-07 6.12 9786
1976 1976-08-01 5.02 6166
1977 1976-10-14 3.91 3206
1978 1978-08-09 4.74 4936
1979 1979-08-09 4.57 4556
1980 1980-08-06 4.23 3406
1981 1981-08-16 4.70 4826
1982 1982-06-28 7.93 1,9306
1983 1983-01-29 7.73 1,9806
1984 1983-12-26 8.53 2,3606
1985 1985-08-08 4.14 3816
1986 1986-03-13 8.84 2,4506
1987 1987-07-27 4.18 4186
1988 1988-06-24 4.16 4136
1989 1989-07-25 4.22 3996
1990 1990-06-15 3.01 1726
1991 1991-07-08 2.572  
1992 1991-10-26 2.86  
1993 1993-07-09 2.802 71.06
1994 1994-05-06 2.622  
1995 1995-06-14 3.682 1656
1996 1996-05-21 9.07 2,3506
1997 1997-01-02 9.59 2,6906
1998 1998-06-16 7.93 1,7806
1999 1999-02-11 7.92 2,0206
2000 2000-05-28 4.76 5136
2001 2001-08-09 4.67 4566
2002 2002-07-25 4.32 3836
2003 2003-08-09 4.30 3786
2004 2004-06-28 4.21 3576
2005 2005-07-25 4.03 2976
2006 2006-06-28 7.69 1,6806
2007 2007-07-15 4.30 3476
2008 2008-07-03 4.98 5276
2009 2009-07-18 4.36 4016
2010 2010-08-06 4.34 3866
2011 2011-09-04 3.87 2526
2012 2012-09-04 4.67 3766
2013 2013-07-08 4.49 3936
2014 2014-06-17 4.14 3266
2015 2015-02-07 1.75 11.06
2016 2016-06-29 3.70 2186
2017 2017-04-26 8.32 2,2206
2018 2018-04-10 8.02 2,0606
2019 2019-02-27 6.51 1,2206
2020 2020-09-08 4.15 3776
?
  Peak Gage-Height Qualification Codes.
?
  Peak Streamflow Qualification Codes.